[[{"header":{"parameterUnit":"m.s-1","parameterCategory":1,"la1":30.2991,"la2":30.254,"lo1":-89.0895,"lo2":-89.0444,"dy":0.0017,"dx":0.0017,"nx":28,"ny":28,"refTime":"2024-04-02T21:00:00:Z","depth":0,"parameterNumber":2,"parameterNumberName":"U-component_of_WINDS"},"data":[0,0,0,0,0,0,0,0,0,0,0,0,0,0,0,0,0,0,0,0,0,0,0,0,0,0,0,0,0,0,0,0,0,0,0,0,0,0,0,0,0,0,0,0,0,0,0,0,0,0,0,0,0,0,0,0,0,0,4.3051,4.3052,0,4.3154,4.3155,4.3156,4.3105,4.3102,4.31,4.3097,4.3202,4.3207,4.3213,0,0,0,0,0,0,0,0,0,0,0,0,0,4.2812,4.2817,4.3051,4.3053,4.3054,4.3154,4.3155,4.3157,4.3105,4.3102,4.3099,4.3096,4.3201,4.3207,4.3213,0,0,0,0,0,0,0,0,0,0,0,0,0,4.2916,4.2819,4.3051,4.304,4.304,4.3153,4.3155,4.3157,4.3106,4.3102,4.3098,4.3094,4.3198,4.3206,4.3214,4.3344,0,0,4.3238,4.3242,0,0,0,0,0,0,0,0,4.291,4.2925,4.3041,4.3041,4.3042,4.3112,4.3109,4.322,4.3107,4.3081,4.3097,4.3092,4.3176,4.3185,4.3213,4.3349,4.3353,4.3239,4.3244,4.3247,4.3249,0,0,0,0,0,0,0,4.2903,4.292,4.3092,4.3042,4.3043,4.3031,4.3041,4.313,4.315,4.3083,4.308,4.3092,4.3175,4.3206,4.3215,4.3355,4.3239,4.3246,4.3251,4.3254,4.3603,4.3608,0,0,0,0,0,0,4.2896,4.2914,4.3089,4.3095,4.2964,4.3038,4.305,4.3094,4.3149,4.3153,4.3096,4.309,4.3194,4.3206,4.3219,4.3376,4.3247,4.3255,4.3259,4.3599,4.3604,4.3609,0,0,0,0,0,0,4.2891,4.2912,4.3084,4.3004,4.3025,4.3047,4.3097,4.3098,4.3128,4.3158,4.3161,4.3123,4.3191,4.3208,4.3313,4.3378,4.3258,4.3265,4.3594,4.3601,4.3607,4.3689,0,0,0,0,0,0,4.2884,4.2911,4.296,4.3005,4.3029,4.3177,4.3101,4.3103,4.3142,4.3135,4.3185,4.3189,4.319,4.3302,4.3321,4.3387,4.3272,4.3588,4.3597,4.3605,4.3681,4.3698,4.3713,0,0,0,0,0,4.2876,4.2978,4.2962,4.2984,4.3091,4.3181,4.3195,4.3193,4.3148,4.3198,4.3217,4.3188,4.3368,4.3313,4.3335,4.3404,4.3584,4.3594,4.3604,4.3674,4.3695,4.3712,0,0,0,0,0,0,4.2939,4.2984,4.2967,4.3087,4.3131,4.3172,4.3235,4.3215,4.3272,4.3263,4.3258,4.327,4.338,4.3402,4.334,4.3533,4.3469,4.3484,4.3515,4.3535,4.355,4.3543,4.3278,0,0,0,0,0,4.2967,4.3036,4.3072,4.3174,4.3197,4.3212,4.3251,4.3246,4.3291,4.331,4.3337,4.3382,4.3449,4.3493,4.3556,4.3684,4.3695,4.3742,4.3758,4.3771,4.3784,4.3855,4.3877,4.3643,4.3643,4.3642,0,0,4.3025,4.3058,4.3102,4.3188,4.3221,4.3293,4.3228,4.3307,4.3361,4.3322,4.3423,4.3445,4.3495,4.3613,4.3666,4.3635,4.3851,4.3784,4.3794,4.38,4.3868,4.389,4.391,4.365,4.3648,4.3647,0,0,4.3169,4.32,4.329,4.3325,4.3376,4.3386,4.3408,4.3453,4.3466,4.3569,4.3541,4.3605,4.372,4.3758,4.3792,4.3952,4.3928,4.3973,4.4056,4.4125,4.4144,4.416,4.4218,4.4239,4.3986,4.3986,4.3986,0,4.3235,4.3342,4.3338,4.342,4.3459,4.3428,4.3519,4.3553,4.3623,4.3651,4.3615,4.376,4.3791,4.3918,4.3958,4.3986,4.4011,4.3967,4.4141,4.4158,4.4173,4.4228,4.425,4.3991,4.399,4.399,4.3989,0,4.3421,4.3497,4.3563,4.3632,4.3678,4.3764,4.3774,4.3822,4.3813,4.3827,4.3933,4.397,4.4041,4.407,4.4062,4.4197,4.4176,4.4141,4.4077,4.4201,4.4253,4.4274,4.3998,4.3997,4.3995,4.3994,0,0,4.3606,4.3673,4.3698,4.3729,4.3785,4.3843,4.3928,4.3998,4.404,4.4089,4.4161,4.4261,4.4229,4.4268,4.4264,4.4325,4.4451,4.4282,4.4283,4.4313,4.4603,4.463,4.4654,4.4435,4.4439,4.4443,4.4599,0,4.3754,4.3903,4.3903,4.4041,4.4112,4.4084,4.4158,4.4201,4.4217,4.4279,4.4297,4.4368,4.432,4.4343,4.4402,4.4423,4.4509,4.4412,4.4503,4.4506,4.4492,4.4681,4.4709,4.4856,4.462,4.4623,4.4626,0,4.3946,4.4003,4.4148,4.4195,4.4225,4.4292,4.4357,4.4416,4.4465,4.4472,4.4517,4.4504,4.4592,4.4525,4.4647,4.4581,4.4618,4.4635,4.464,4.4649,4.4574,4.4696,4.4902,4.4924,4.4657,4.4655,4.4653,0,4.4068,4.4181,4.4283,4.431,4.4367,4.4416,4.4442,4.4486,4.4529,4.4585,4.4613,4.468,4.4716,4.4768,4.4774,4.4725,4.4898,4.4831,4.4907,4.4907,4.4945,4.4942,4.516,4.4968,4.4968,4.4967,4.4967,0,4.4234,4.4324,4.4338,4.4401,4.4502,4.4502,4.4602,4.4623,4.4664,4.4731,4.4711,4.4774,4.4778,4.4844,4.4849,4.495,4.4967,4.4976,4.4976,4.4978,4.4977,4.5003,4.4993,4.4973,4.4972,4.4971,4.497,0,4.4386,4.44,4.4509,4.4555,4.4568,4.4641,4.468,4.4741,4.4755,4.484,4.486,4.4883,4.496,4.4971,4.506,4.5064,4.5186,4.5175,4.517,4.5168,4.5244,4.5237,4.5487,4.552,4.5306,4.5308,4.5309,0,4.4491,4.456,4.4614,4.4657,4.4686,4.4757,4.48,4.4803,4.485,4.4911,4.4965,4.5039,4.5099,4.5222,4.5247,4.5316,4.5308,4.539,4.5318,4.5318,4.531,4.5306,4.5314,4.5404,4.5407,4.5409,4.541,0,4.4677,4.468,4.4744,4.4811,4.4864,4.4916,4.4966,4.5003,4.5012,4.5066,4.5144,4.5191,4.5283,4.5357,4.5426,4.5453,4.5434,4.5433,4.5454,4.5457,4.5451,4.5456,4.5208,4.5427,4.5425,4.5424,4.5423,4.5423,4.4809,4.487,4.4918,4.499,4.5028,4.5075,4.5135,4.5157,4.5222,4.5297,4.5295,4.5382,4.543,4.552,4.5552,4.562,4.5594,4.5624,4.5632,4.564,4.5648,4.544,4.5633,4.5632,4.5632,4.5632,4.5631,0,4.4994,4.5024,4.509,4.5161,4.5218,4.5196,4.525,4.5299,4.5376,4.5422,4.5482,4.5573,4.5645,4.5677,4.5749,4.5797,4.579,4.5816,4.5813,4.582,4.5667,4.5642,4.582,4.582,4.582,4.582,4.582,4.582,4.5097,4.5199,4.5209,4.533,4.5359,4.5443,4.5477,4.5521,4.5558,4.566,4.5721,4.5741,4.5782,4.5857,4.5923,4.5931,4.5958,4.5988,4.5992,4.5849,4.583,4.5812,4.5788,4.5994,4.5994,4.6139,4.614,4.6141]},{"header":{"parameterUnit":"m.s-1","parameterCategory":1,"la1":30.2991,"la2":30.254,"lo1":-89.0895,"lo2":-89.0444,"dy":0.0017,"dx":0.0017,"nx":28,"ny":28,"refTime":"2024-04-02T21:00:00:Z","depth":0,"parameterNumber":3,"parameterNumberName":"V-component_of_WINDS"},"data":[0,0,0,0,0,0,0,0,0,0,0,0,0,0,0,0,0,0,0,0,0,0,0,0,0,0,0,0,0,0,0,0,0,0,0,0,0,0,0,0,0,0,0,0,0,0,0,0,0,0,0,0,0,0,0,0,0,0,-5.6198,-5.62,0,-5.638,-5.6382,-5.6384,-5.6341,-5.6338,-5.6335,-5.6331,-5.6517,-5.6525,-5.6533,0,0,0,0,0,0,0,0,0,0,0,0,0,-5.5814,-5.5821,-5.6198,-5.62,-5.6202,-5.6379,-5.6382,-5.6384,-5.6342,-5.6338,-5.6334,-5.633,-5.6514,-5.6524,-5.6534,0,0,0,0,0,0,0,0,0,0,0,0,0,-5.5986,-5.5823,-5.6197,-5.6202,-5.6205,-5.6379,-5.6382,-5.6385,-5.6343,-5.6338,-5.6332,-5.6328,-5.6511,-5.6523,-5.6535,-5.6715,0,0,-5.6573,-5.6578,0,0,0,0,0,0,0,0,-5.5977,-5.6001,-5.6199,-5.6202,-5.6205,-5.6333,-5.6315,-5.6496,-5.6344,-5.629,-5.6331,-5.6325,-5.646,-5.6476,-5.6522,-5.6724,-5.6732,-5.6574,-5.6581,-5.6587,-5.659,0,0,0,0,0,0,0,-5.5965,-5.5992,-5.627,-5.6202,-5.6206,-5.6196,-5.6215,-5.6349,-5.6402,-5.6295,-5.6292,-5.6314,-5.646,-5.651,-5.6526,-5.6735,-5.6574,-5.6584,-5.6592,-5.6597,-5.7095,-5.71,0,0,0,0,0,0,-5.595,-5.5983,-5.6264,-5.6275,-5.6076,-5.6207,-5.6228,-5.6297,-5.6401,-5.6411,-5.6319,-5.6312,-5.6491,-5.6511,-5.6532,-5.675,-5.6586,-5.6598,-5.6605,-5.7089,-5.7096,-5.7102,0,0,0,0,0,0,-5.5942,-5.5976,-5.6256,-5.6128,-5.6163,-5.6219,-5.6297,-5.6303,-5.6353,-5.6419,-5.6428,-5.6359,-5.6488,-5.6515,-5.667,-5.6756,-5.6604,-5.6615,-5.7082,-5.7091,-5.7099,-5.7188,0,0,0,0,0,0,-5.5931,-5.5973,-5.6042,-5.613,-5.617,-5.6392,-5.6302,-5.6311,-5.6374,-5.6367,-5.6459,-5.647,-5.6486,-5.6652,-5.6683,-5.677,-5.6624,-5.7075,-5.7086,-5.7097,-5.7178,-5.7199,-5.7217,0,0,0,0,0,-5.5918,-5.606,-5.6046,-5.608,-5.6258,-5.6397,-5.642,-5.6436,-5.6381,-5.6451,-5.6493,-5.6467,-5.6742,-5.6669,-5.6702,-5.6795,-5.7069,-5.7083,-5.7096,-5.7169,-5.7195,-5.7216,0,0,0,0,0,0,-5.598,-5.6071,-5.6057,-5.6231,-5.6307,-5.639,-5.6478,-5.6463,-5.6555,-5.6545,-5.6561,-5.6582,-5.6741,-5.6783,-5.67,-5.6975,-5.6898,-5.6918,-5.6942,-5.6967,-5.6986,-5.6973,-5.6634,0,0,0,0,0,-5.6014,-5.6119,-5.6193,-5.634,-5.6379,-5.6422,-5.6484,-5.649,-5.6568,-5.66,-5.6654,-5.6731,-5.6835,-5.6903,-5.7002,-5.7183,-5.7203,-5.7264,-5.7284,-5.7299,-5.7317,-5.7417,-5.7445,-5.7146,-5.7146,-5.7145,0,0,-5.6085,-5.6148,-5.6214,-5.6354,-5.6414,-5.6523,-5.6449,-5.6568,-5.6649,-5.6618,-5.6768,-5.6811,-5.6898,-5.7067,-5.7145,-5.7108,-5.7404,-5.7316,-5.7328,-5.7338,-5.7433,-5.7462,-5.7487,-5.7155,-5.7153,-5.7152,0,0,-5.6271,-5.6329,-5.6458,-5.6519,-5.661,-5.6638,-5.6669,-5.6755,-5.6782,-5.6933,-5.6912,-5.7009,-5.7187,-5.7251,-5.7306,-5.7517,-5.7496,-5.7549,-5.7651,-5.7748,-5.7772,-5.7793,-5.7868,-5.7895,-5.7566,-5.7566,-5.7566,0,-5.6348,-5.6512,-5.6526,-5.6648,-5.671,-5.6687,-5.6818,-5.6877,-5.6995,-5.7039,-5.6996,-5.722,-5.7277,-5.7461,-5.7513,-5.7558,-5.7595,-5.7538,-5.7767,-5.7788,-5.7808,-5.7881,-5.7909,-5.7572,-5.7571,-5.7571,-5.757,0,-5.6603,-5.6717,-5.681,-5.6926,-5.6999,-5.7124,-5.7158,-5.723,-5.723,-5.7263,-5.7417,-5.7485,-5.7598,-5.7642,-5.7643,-5.7827,-5.7801,-5.7763,-5.7685,-5.7842,-5.7911,-5.7938,-5.758,-5.7578,-5.7577,-5.7575,0,0,-5.6833,-5.6955,-5.6989,-5.7042,-5.714,-5.7229,-5.7353,-5.7464,-5.7526,-5.7608,-5.7713,-5.7865,-5.783,-5.7894,-5.7901,-5.7986,-5.815,-5.7937,-5.794,-5.7975,-5.8358,-5.8387,-5.8419,-5.8136,-5.8142,-5.8146,-5.8351,0,-5.7029,-5.7248,-5.7265,-5.7463,-5.7569,-5.7549,-5.7657,-5.7729,-5.7763,-5.7858,-5.7895,-5.8003,-5.7948,-5.7986,-5.807,-5.8112,-5.8227,-5.8098,-5.8235,-5.8239,-5.8214,-5.8454,-5.8485,-5.8675,-5.8377,-5.8382,-5.8385,0,-5.7286,-5.7377,-5.7585,-5.7669,-5.7714,-5.7812,-5.7915,-5.8005,-5.8087,-5.8106,-5.8177,-5.8173,-5.8301,-5.8219,-5.8396,-5.8307,-5.8364,-5.8394,-5.8401,-5.8415,-5.8322,-5.8475,-5.8736,-5.8765,-5.8427,-5.8424,-5.8421,0,-5.7434,-5.7608,-5.7756,-5.7801,-5.7903,-5.7972,-5.8017,-5.8094,-5.8159,-5.825,-5.8292,-5.8396,-5.8453,-5.8534,-5.8558,-5.8496,-5.8735,-5.8654,-5.8754,-5.8754,-5.8806,-5.8802,-5.908,-5.8842,-5.8841,-5.8841,-5.884,0,-5.7651,-5.7779,-5.7823,-5.7914,-5.8058,-5.8076,-5.8218,-5.8259,-5.8328,-5.8426,-5.8415,-5.8508,-5.8534,-5.8632,-5.8652,-5.8796,-5.8821,-5.884,-5.8844,-5.8842,-5.884,-5.888,-5.8868,-5.8848,-5.8846,-5.8845,-5.8844,0,-5.784,-5.7875,-5.8035,-5.8118,-5.8142,-5.8244,-5.8316,-5.8404,-5.8435,-5.8561,-5.8591,-5.8642,-5.8756,-5.8788,-5.8926,-5.8939,-5.9108,-5.91,-5.9081,-5.9081,-5.918,-5.9171,-5.9494,-5.9538,-5.927,-5.9272,-5.9274,0,-5.7977,-5.8075,-5.8169,-5.8235,-5.8284,-5.8389,-5.8456,-5.8478,-5.8548,-5.8649,-5.8725,-5.8838,-5.8929,-5.9113,-5.9162,-5.9267,-5.9261,-5.9368,-5.9277,-5.9272,-5.9264,-5.9258,-5.9268,-5.9385,-5.9388,-5.939,-5.9392,0,-5.8216,-5.8228,-5.8325,-5.8429,-5.851,-5.8592,-5.8672,-5.8726,-5.8759,-5.8839,-5.8956,-5.9027,-5.9167,-5.928,-5.9387,-5.9433,-5.9419,-5.942,-5.9449,-5.9448,-5.9433,-5.9443,-5.9128,-5.9412,-5.941,-5.9409,-5.9408,-5.9407,-5.8383,-5.847,-5.855,-5.8659,-5.8721,-5.8796,-5.8883,-5.8926,-5.9024,-5.914,-5.9147,-5.9274,-5.9354,-5.9495,-5.9548,-5.9648,-5.9616,-5.9658,-5.9669,-5.9679,-5.9688,-5.9417,-5.9667,-5.9666,-5.9666,-5.9666,-5.9665,0,-5.8622,-5.8673,-5.8773,-5.8884,-5.897,-5.8949,-5.9036,-5.9109,-5.9221,-5.9297,-5.9387,-5.9522,-5.9632,-5.9689,-5.9798,-5.9867,-5.9863,-5.9895,-5.989,-5.9902,-5.9709,-5.9674,-5.9896,-5.9896,-5.9896,-5.9896,-5.9896,-5.9896,-5.8757,-5.8903,-5.8925,-5.9102,-5.9151,-5.9276,-5.9328,-5.9397,-5.9457,-5.9609,-5.9699,-5.9736,-5.9805,-5.9919,-6.0018,-6.0032,-6.0073,-6.0109,-6.012,-5.9939,-5.9915,-5.9893,-5.9859,-6.0118,-6.0118,-6.0304,-6.0306,-6.0307]}]]